GFSFLT2_925_spd_303.txt.gz
Wind_Speed
20 19 17 16 15 15 14 15 16 16 17 20 21 20 21 22 21 19 17 16 14 13 13 13 13 13 14 13 8 8 12 8
21 19 17 16 16 16 15 17 17 17 17 20 20 20 20 19 18 16 14 13 12 11 12 12 12 12 12 12 6 6 8 12
22 20 19 17 16 17 17 17 17 17 18 19 20 16 15 15 13 14 13 11 11 10 10 11 11 11 10 6 4 12 17 19
22 21 21 20 18 17 16 17 16 16 17 18 16 14 13 12 12 12 11 10 10 10 10 8 11 10 6 5 8 15 17 17
23 22 21 21 20 19 18 17 17 17 16 15 16 14 12 12 10 9 8 11 11 11 8 6 4 8 8 8 12 15 12 16
24 23 22 20 21 20 18 17 16 17 17 14 15 15 13 13 13 12 10 9 7 6 6 7 7 10 10 9 12 14 15 15
27 23 22 20 20 19 18 17 16 16 15 15 15 13 12 12 10 11 9 7 7 7 9 9 11 11 11 12 14 17 13 18
28 25 22 20 19 18 18 18 17 16 15 15 13 13 12 10 10 8 7 5 8 8 11 11 9 10 11 11 11 12 14 18
28 27 24 21 17 18 17 17 15 15 15 15 13 10 12 11 11 9 8 8 9 9 8 9 9 9 10 11 11 11 13 12
27 27 26 23 19 19 17 16 16 14 13 14 13 10 11 10 10 10 10 10 9 9 8 9 8 9 9 9 10 10 10 9
27 26 26 25 21 20 17 17 15 15 14 14 13 11 11 10 10 9 10 8 7 9 9 9 9 10 10 10 10 10 9 8
27 27 26 25 23 20 18 18 16 15 15 15 15 12 11 10 10 9 9 9 8 8 8 9 10 11 12 11 10 8 8 8
30 29 27 26 24 23 21 20 18 16 16 13 13 11 11 11 10 9 9 9 8 10 10 11 11 12 13 11 9 8 7 7
31 30 29 28 25 23 22 21 19 17 15 14 14 13 12 11 10 10 10 10 10 11 12 13 12 16 13 11 5 7 6 5
33 32 31 30 26 24 21 18 16 16 16 14 14 13 12 11 11 10 10 9 11 13 14 13 14 16 9 7 5 3 12 6
32 33 31 31 27 25 24 23 20 19 18 15 14 13 12 11 10 10 10 10 11 13 15 15 13 14 11 11 3 9 4 5
35 34 32 29 29 25 25 22 20 17 17 16 15 14 13 12 11 11 11 11 12 13 14 15 14 12 12 11 9 6 4 4
31 31 34 32 32 25 25 25 21 19 18 18 17 15 14 13 12 11 11 10 11 12 13 14 13 13 13 12 12 10 8 6
30 28 27 29 27 26 23 25 21 18 20 19 19 17 15 14 13 11 10 10 10 10 12 12 13 13 13 12 11 8 4 7
26 27 25 27 30 30 27 21 21 19 19 19 20 17 15 15 13 11 12 11 10 10 11 12 12 13 13 10 10 8 8 8

GFSFLT2_925_spd_306.txt.gz
Wind_Speed
22 22 21 18 20 19 19 19 20 20 21 20 22 22 22 22 22 20 18 17 16 15 15 15 15 13 8 5 7 14 18 26
24 21 19 18 19 19 19 20 20 20 22 22 22 22 22 20 19 17 15 14 14 14 14 14 13 12 7 8 21 30 23 23
25 23 20 19 18 18 20 20 20 22 23 23 23 22 21 17 14 15 13 12 12 12 13 13 13 11 6 9 16 24 24 22
25 24 24 22 18 19 19 21 21 21 23 24 20 20 18 14 14 13 12 11 11 10 9 10 10 8 9 14 14 15 20 23
25 26 24 24 21 21 18 20 19 19 25 24 18 18 18 13 15 13 13 13 13 11 10 7 2 11 21 19 13 18 21 21
26 26 25 24 22 24 22 22 21 21 17 15 21 18 17 14 15 13 14 16 13 11 9 12 11 12 17 14 15 16 21 28
28 27 25 25 26 24 23 23 23 18 16 18 20 17 22 21 18 19 17 19 11 14 12 10 13 16 16 15 15 16 21 25
25 28 25 23 22 24 21 24 23 24 19 20 20 18 14 14 17 16 14 15 15 14 14 16 15 14 16 15 14 14 19 23
23 29 25 24 15 23 20 22 23 21 22 20 16 19 16 16 12 9 12 15 16 17 14 14 15 14 15 17 16 17 20 19
30 27 25 26 17 21 18 17 20 19 20 19 14 15 18 9 15 11 11 10 10 12 13 14 14 15 14 15 16 14 14 14
32 27 27 24 23 22 20 20 21 19 18 18 13 11 14 8 12 13 12 12 14 13 14 14 15 15 14 14 13 13 12 9
33 25 29 26 23 21 17 22 18 19 20 21 18 12 13 8 17 15 14 12 9 12 13 14 14 14 16 15 14 12 11 11
36 28 30 29 24 22 19 23 19 19 18 22 22 15 14 11 13 13 13 12 14 13 14 15 16 17 19 14 10 10 10 9
36 33 32 31 25 23 21 24 20 19 17 21 20 16 15 14 12 13 12 10 12 15 15 17 18 20 14 14 3 3 4 6
38 35 33 32 24 26 23 22 21 21 20 21 18 15 14 13 12 12 14 10 13 16 17 19 20 20 21 6 3 3 13 7
38 38 37 37 32 28 25 21 20 22 20 19 17 17 16 15 15 12 14 13 15 16 17 17 17 19 17 13 3 10 3 3
39 38 38 36 33 27 24 23 22 23 21 21 19 19 17 15 16 15 15 14 13 15 16 16 15 17 18 12 7 7 8 5
36 37 36 36 35 28 25 22 23 23 26 26 22 20 17 17 16 15 14 14 13 15 15 19 13 14 14 14 14 12 8 6
35 34 34 38 35 30 28 31 25 27 30 29 27 23 19 18 17 16 15 13 11 13 14 15 18 11 11 14 14 14 8 12
33 31 33 33 33 32 26 32 33 20 28 27 27 27 22 21 18 17 14 15 14 14 13 13 14 12 11 7 12 8 5 6

GFSFLT2_925_spd_312.txt.gz
Wind_Speed
32 29 27 27 27 28 27 28 30 30 31 30 30 28 28 27 25 24 22 21 21 21 19 19 18 13 9 12 18 21 20 19
32 29 28 28 27 27 27 27 28 29 30 29 28 28 27 26 25 23 22 21 21 21 21 17 17 14 10 18 30 25 22 20
32 30 29 29 28 27 26 25 26 28 28 29 29 29 27 24 23 22 22 21 20 18 21 18 20 23 23 27 28 25 22 23
34 30 30 30 28 29 28 27 27 30 30 29 29 27 25 23 22 20 19 17 15 15 17 16 20 20 23 25 24 23 24 24
33 32 30 32 31 31 30 29 28 29 29 29 29 26 23 21 20 19 18 17 14 12 14 16 17 20 23 25 26 24 22 22
34 33 31 30 31 31 30 31 30 30 30 30 29 25 23 21 20 18 17 15 13 12 15 21 20 19 21 24 24 25 25 25
36 35 32 31 32 31 31 33 32 32 31 29 27 24 24 23 20 18 16 15 13 15 16 17 17 17 17 20 25 24 27 24
38 36 34 34 34 34 33 34 35 34 32 30 25 23 23 22 20 18 17 17 14 22 20 19 19 20 20 21 24 26 26 25
40 39 36 36 35 35 35 35 36 35 32 27 26 23 22 22 21 20 17 17 24 25 24 22 22 20 22 23 24 22 22 21
40 41 38 38 38 37 35 34 35 35 29 27 28 24 23 22 21 18 17 22 29 29 27 25 23 22 23 22 22 22 21 18
40 43 43 41 40 38 35 37 36 32 29 31 30 25 25 24 21 21 20 28 32 29 27 24 23 21 21 21 19 19 16 13
41 44 45 45 42 40 37 38 39 36 33 33 31 29 24 24 27 31 33 34 33 29 26 24 26 27 24 21 18 14 12 10
42 44 46 46 43 39 39 35 39 37 35 33 29 24 28 30 38 36 37 35 32 28 28 30 29 30 27 20 16 13 12 11
41 45 46 43 38 37 35 35 39 38 36 33 31 27 27 33 36 36 32 31 32 32 34 31 33 33 16 15 3 4 8 12
46 45 47 41 38 42 39 32 35 31 37 37 32 30 26 30 32 30 30 32 34 34 37 35 28 25 33 9 3 4 6 10
46 43 43 38 39 40 39 33 24 23 33 37 35 33 29 30 28 30 29 31 32 35 37 35 36 28 30 9 7 14 3 2
47 45 43 42 43 37 34 31 29 30 33 36 39 35 33 31 30 28 29 29 32 35 38 36 36 35 30 20 10 13 10 4
41 43 42 42 45 40 35 31 29 33 36 38 41 37 34 32 32 30 31 32 33 34 34 34 34 33 33 26 21 12 10 6
36 38 38 40 45 44 41 34 35 39 41 40 40 40 36 33 33 32 32 32 31 30 30 31 32 32 32 30 25 25 15 18
38 41 37 38 40 37 42 33 32 36 36 34 41 41 38 35 33 33 32 30 30 29 30 31 30 29 28 29 29 25 23 20

GFSFLT2_925_spd_315.txt.gz
Wind_Speed
28 27 27 27 27 27 28 26 26 26 26 25 25 25 24 23 23 23 23 24 24 23 20 17 15 14 17 17 18 17 20 21
29 27 27 27 26 26 27 27 26 25 27 26 25 26 25 23 23 22 22 24 24 22 21 17 14 11 18 20 21 21 21 20
24 27 28 28 27 26 27 27 27 27 26 27 27 26 24 23 22 21 21 24 23 22 20 17 15 15 26 25 26 23 20 20
24 28 31 29 26 27 28 28 29 28 27 27 28 27 25 22 20 20 21 23 21 21 22 21 22 29 31 28 24 21 22 21
27 31 32 27 24 27 29 28 28 28 28 28 28 27 24 22 20 20 21 21 20 20 21 21 23 27 27 26 23 22 23 20
31 35 34 30 27 28 32 31 31 30 29 29 29 27 25 22 21 19 19 19 20 20 20 20 22 24 25 24 23 22 19 20
35 39 38 35 32 33 34 33 33 33 32 32 31 28 27 24 21 19 18 20 19 21 22 23 23 22 22 21 21 20 21 21
39 41 40 37 36 34 35 35 36 35 35 34 32 29 27 24 21 19 19 18 21 24 25 23 23 23 23 21 20 22 22 21
41 43 41 39 39 37 36 37 36 37 37 35 32 29 27 24 21 19 20 19 22 21 21 21 22 22 22 22 23 24 22 20
40 39 42 41 40 39 38 38 37 38 36 34 31 28 26 24 22 20 20 18 21 22 22 22 22 22 23 23 23 21 21 19
38 38 42 41 40 40 38 38 38 38 35 33 30 27 25 23 23 21 22 21 26 26 24 24 24 23 22 22 19 19 20 16
40 38 42 42 41 39 38 37 39 38 37 33 29 28 26 25 23 22 21 28 30 27 26 23 25 26 23 19 16 16 12 10
40 37 39 40 36 34 34 37 38 37 36 33 31 31 28 28 25 25 26 34 36 31 28 27 26 27 26 18 12 10 11 10
40 40 38 40 36 34 31 34 39 40 37 35 33 32 30 29 27 30 32 36 38 36 33 29 28 31 13 11 2 1 8 11
43 43 41 38 32 31 29 30 36 36 38 37 35 33 32 31 31 37 36 38 39 38 37 34 28 27 31 9 3 4 4 9
42 44 44 41 37 34 34 35 27 28 31 40 40 35 32 35 35 41 41 40 41 41 39 34 33 32 29 10 6 15 3 2
45 45 43 44 41 39 35 30 28 30 30 36 39 36 36 35 40 42 42 41 41 41 41 38 35 34 31 15 13 9 10 4
40 41 43 41 44 43 39 35 31 31 34 36 37 40 40 38 39 39 40 41 41 41 39 40 38 33 36 29 23 11 9 7
39 40 39 42 42 43 42 41 37 37 33 33 32 36 41 40 41 39 38 37 38 40 40 40 40 38 33 35 29 25 11 14
42 40 39 41 42 43 43 43 42 39 39 33 36 36 40 41 39 38 37 35 35 37 37 39 40 37 36 33 32 26 22 19